Temperature
9 7 8 8 9 9 9 9 8 9 10 9 8 9 9 10 10 10 10 10 10 10 11 11 10 10 10 10 10 10 10 10 9 9 10 10 10 10 10 10 10 10 10 10
8 8 9 9 9 9 9 8 8 9 9 9 8 8 9 9 9 10 10 10 10 10 10 10 10 10 10 10 10 9 9 9 9 9 10 10 10 9 9 9 9 9 9 10
9 9 10 10 9 9 9 8 8 8 9 9 9 8 9 9 10 10 10 10 10 10 10 10 10 10 10 9 9 9 9 9 9 9 9 9 9 9 9 9 9 9 9 9
8 9 9 9 9 9 8 9 9 9 8 7 8 7 8 8 8 9 9 10 10 10 10 10 10 9 9 9 9 9 9 9 9 8 9 9 9 9 9 9 9 9 9 9
8 9 9 9 9 9 8 9 9 8 8 7 7 7 7 7 8 8 9 10 10 10 10 10 10 10 9 9 9 9 9 8 8 8 8 8 8 8 8 8 8 8 9 9
8 9 9 9 9 9 9 8 8 6 6 7 7 7 7 7 8 8 8 9 10 10 10 9 9 9 9 9 9 9 8 8 8 8 8 8 8 8 8 8 8 8 8 8
8 9 9 9 9 8 8 7 7 7 6 7 7 7 7 8 8 8 8 9 9 9 9 9 9 9 9 9 9 8 8 8 8 8 8 8 8 8 8 8 8 8 8 8
7 7 8 8 8 8 7 7 7 8 7 6 7 7 7 8 8 9 9 9 9 9 9 9 8 8 8 9 8 8 8 8 8 8 8 7 7 7 7 7 8 8 8 8
7 7 8 8 8 8 8 7 7 6 6 6 6 7 8 8 7 7 7 8 8 8 8 8 8 8 8 8 8 8 8 8 7 7 7 7 7 7 7 7 7 7 7 7
8 7 8 8 8 8 8 7 6 6 7 7 7 7 7 7 7 6 6 7 7 8 8 8 8 8 8 8 8 8 7 7 7 7 7 7 7 7 7 7 7 7 7 7
8 7 7 7 7 7 7 7 6 5 5 6 6 7 7 7 7 6 6 7 7 7 7 7 7 7 7 7 7 7 7 7 7 6 6 6 7 7 7 7 7 7 7 7
7 5 5 6 7 7 7 7 6 6 6 5 5 6 8 7 6 6 6 7 7 7 7 7 7 7 7 7 7 7 6 6 6 6 6 6 6 6 6 6 6 6 6 6
6 6 5 6 7 7 7 7 6 6 5 4 5 6 7 6 6 7 7 7 7 7 6 6 7 7 6 6 6 6 6 6 6 6 6 6 6 6 6 5 6 6 6 6
7 5 5 6 7 6 6 6 6 6 5 5 5 6 7 6 6 6 6 6 6 6 6 6 6 6 6 6 6 6 6 6 5 5 5 5 5 5 5 5 5 5 5 5
5 4 5 5 6 6 6 6 6 6 5 5 6 6 6 6 6 6 6 6 6 6 6 5 5 5 5 5 5 5 5 5 5 5 5 5 5 5 5 5 5 5 5 5
4 4 4 4 5 5 5 6 6 6 6 6 6 6 6 6 6 6 6 5 5 5 5 5 5 5 5 5 5 5 5 5 5 4 4 4 4 4 4 4 4 4 4 4
3 3 3 3 4 5 5 5 5 5 5 5 6 6 5 5 5 5 5 5 5 5 5 5 4 4 4 4 4 4 4 4 4 4 4 4 4 4 4 4 4 4 4 4
3 3 2 2 4 3 5 6 6 5 5 5 5 4 4 5 5 5 5 5 5 4 4 4 4 4 4 4 4 4 4 4 4 3 3 3 3 3 3 4 4 3 3 4
3 3 2 2 3 4 4 5 4 4 4 4 4 4 4 4 4 4 4 4 4 4 4 4 4 4 4 4 4 3 3 3 3 3 3 3 3 3 3 3 3 3 3 3
2 2 2 2 3 4 4 4 5 5 4 4 3 3 3 3 2 2 3 4 4 4 4 4 4 3 4 3 3 3 3 3 3 3 3 3 3 2 2 2 2 2 2 2
1 1 2 2 2 3 3 4 4 4 3 3 3 3 2 2 2 3 3 3 3 3 3 3 3 3 3 3 3 3 2 2 2 2 2 2 2 2 2 2 2 2 2 2
1 1 1 1 2 2 2 2 2 2 2 2 2 2 2 2 2 2 2 2 2 3 3 3 3 2 2 2 2 2 2 2 2 2 2 2 1 1 1 1 1 1 1 1
1 1 1 1 2 1 2 2 2 2 2 2 2 2 2 2 1 2 2 1 2 2 2 2 2 2 2 2 1 1 1 1 1 1 1 1 1 1 1 1 0 0 0 0
0 0 0 0 0 1 1 1 1 2 1 1 1 1 1 1 1 1 1 1 1 1 1 1 1 1 1 1 1 1 1 1 1 1 0 0 0 0 0 0 -0 -0 -0 -0
-0 -0 -0 -0 -0 -0 0 0 1 1 1 1 1 1 1 1 0 0 -0 -0 -0 -0 -0 -0 -0 -0 -0 -0 0 0 0 0 0 -0 -0 -0 -0 -0 -0 -0 -1 -1 -1 -1
-1 -1 -1 -0 -0 -1 -1 -0 -0 -0 -0 -0 -0 -0 -1 -0 -1 -1 -1 -1 -1 -1 -1 -1 -1 -1 -1 -1 -1 -1 -1 -1 -1 -1 -1 -1 -1 -1 -1 -1 -1 -1 -1 -2
Wind_Speed
1 3 2 5 6 5 4 4 7 8 5 3 7 10 11 7 3 3 3 3 4 6 5 4 4 4 4 5 5 5 5 4 3 2 2 2 2 1 1 2 4 5 6 8
3 3 7 5 4 3 4 5 7 7 3 3 6 10 10 6 4 5 4 4 5 4 3 3 3 3 5 6 6 6 6 6 5 3 3 2 2 1 1 2 3 4 5 6
5 5 3 3 3 3 5 5 5 6 7 4 3 7 6 5 3 3 3 3 4 4 4 4 4 5 5 6 6 6 6 5 4 3 2 2 2 2 1 1 2 3 5 5
4 5 3 3 4 4 6 5 5 5 3 4 1 5 7 5 4 3 4 3 4 4 3 4 4 5 6 7 6 6 6 5 4 4 5 5 4 3 3 2 2 2 4 5
5 3 3 5 5 5 6 4 3 3 2 4 2 3 8 4 4 5 4 4 4 3 3 3 4 6 6 6 6 6 6 5 5 5 6 6 4 2 1 1 2 2 2 4
5 4 4 5 3 3 2 2 3 3 2 3 4 5 7 4 4 4 4 3 3 3 2 2 3 3 3 4 4 5 6 6 5 6 5 6 6 4 4 3 3 2 2 2
4 4 3 2 1 1 2 3 3 4 2 5 2 4 8 5 3 3 2 3 3 2 2 1 1 2 2 4 5 5 6 6 6 6 6 6 6 6 7 6 6 5 3 3
3 6 5 4 5 4 3 5 4 3 4 5 3 5 6 3 2 0 0 1 2 3 2 2 2 2 3 4 5 6 6 6 6 6 6 5 5 5 4 5 5 5 4 4
5 6 3 3 3 6 4 4 4 4 2 4 5 5 5 2 3 2 2 3 3 3 3 3 2 2 2 3 5 6 6 5 5 6 5 5 5 4 4 4 4 4 4 3
5 4 4 2 1 1 4 5 4 3 3 4 6 5 5 4 3 2 2 3 3 4 4 3 2 2 2 3 4 4 5 5 4 5 5 4 5 5 4 4 5 5 5 5
3 4 3 1 6 6 4 4 4 4 4 4 4 6 4 5 4 3 3 3 3 3 4 4 3 2 1 1 1 2 3 3 3 3 3 3 4 4 4 4 5 5 5 5
2 3 4 7 6 4 6 6 6 4 5 5 4 7 3 4 4 3 2 2 3 3 4 3 3 2 2 1 1 0 1 2 3 3 3 3 3 3 3 4 4 4 5 5
2 3 2 5 3 1 3 4 4 3 3 5 5 7 2 1 1 1 1 2 3 3 4 3 3 3 2 2 1 1 1 1 2 2 3 2 2 3 3 4 3 4 4 4
1 4 7 9 7 4 5 7 6 5 5 6 9 9 6 4 4 3 2 2 2 3 3 3 3 3 3 2 2 1 1 1 0 1 2 2 2 2 3 3 3 3 4 4
2 5 7 9 8 6 9 11 10 11 10 10 9 10 11 8 7 5 3 1 1 3 4 3 4 4 3 3 2 2 2 1 0 0 1 1 1 1 1 2 2 2 3 4
1 4 4 7 8 9 12 13 13 13 11 12 12 12 8 5 3 2 2 1 1 2 3 4 4 4 4 3 3 2 2 1 0 0 1 1 1 0 1 1 2 2 2 3
4 3 3 6 5 6 11 11 11 8 7 8 12 10 3 2 3 3 3 2 1 2 3 4 4 4 4 3 3 2 2 1 0 0 1 1 1 1 1 1 1 2 3 2
7 5 3 3 1 9 8 3 6 7 6 5 4 3 3 4 3 2 2 1 1 2 3 4 4 4 4 3 3 2 1 1 0 1 1 1 1 1 1 0 1 2 2 2
8 7 5 3 5 9 6 3 3 5 5 3 4 3 2 1 1 1 1 0 1 2 3 3 3 3 3 3 2 1 1 1 1 1 1 1 1 1 1 1 1 1 1 2
2 5 5 5 5 6 4 4 3 3 4 2 2 2 2 2 1 4 2 1 2 2 2 3 3 3 3 3 2 1 2 1 2 2 2 2 1 1 2 2 1 1 1 1
1 3 6 7 7 6 4 4 2 3 4 2 1 1 1 3 4 3 1 1 1 2 3 3 3 3 3 4 2 2 2 3 3 2 2 2 1 2 1 1 1 0 0 1
5 4 5 4 5 6 3 2 2 3 1 1 1 1 1 1 1 1 1 2 2 3 3 3 3 4 4 4 3 3 3 3 3 1 1 1 1 1 1 0 0 0 1 1
3 4 3 5 4 2 2 1 1 1 1 2 1 1 0 1 2 2 3 3 3 3 3 3 3 4 5 4 3 3 4 4 3 2 2 2 1 1 1 1 1 1 1 1
3 1 1 3 4 3 3 3 3 2 2 2 2 1 1 1 1 2 3 3 3 3 3 3 3 4 5 5 5 4 4 3 2 2 2 2 1 1 1 0 1 1 2 2
4 2 3 4 4 3 3 2 3 3 2 2 3 3 2 1 1 1 2 3 3 3 3 3 3 4 5 5 6 5 4 3 3 2 2 2 2 1 1 1 1 2 2 3
2 3 3 4 3 3 4 3 2 3 3 3 3 3 3 2 1 2 2 2 2 3 3 3 4 4 5 5 6 5 5 3 2 2 2 2 1 1 1 1 3 3 3 4
Wind_Direction
84 76 223 229 214 219 225 242 269 270 270 279 265 275 284 290 289 274 262 259 265 257 249 235 219 194 172 169 171 173 166 169 158 155 153 153 160 147 144 160 151 154 156 156
38 253 239 230 226 231 238 264 276 287 291 267 273 280 280 272 249 244 243 240 251 270 279 241 211 187 181 180 180 180 182 180 178 183 179 168 156 157 172 159 146 156 159 161
208 241 237 222 243 249 257 234 252 272 312 313 309 304 289 280 257 261 261 250 251 243 240 235 214 199 192 191 188 190 190 185 183 170 140 105 78 64 89 162 166 167 168 168
242 251 232 234 241 217 259 236 241 267 314 297 330 291 288 285 297 287 281 276 270 269 240 228 220 206 201 202 197 192 187 185 182 167 165 163 170 186 212 196 182 172 171 171
250 229 218 237 239 203 232 251 249 249 228 291 269 224 284 306 291 285 279 273 277 275 254 232 226 218 213 202 195 192 184 187 187 186 184 181 187 190 157 149 166 176 178 176
246 246 214 224 250 203 220 7 15 44 82 281 243 194 277 259 250 278 289 290 292 297 301 272 242 227 215 199 189 185 186 193 194 194 194 194 191 180 169 179 191 195 200 201
297 276 239 182 197 343 88 81 17 350 341 256 246 205 251 258 244 223 261 289 304 302 313 301 279 251 223 202 191 188 192 200 200 198 201 204 201 192 194 195 196 195 199 210
248 279 237 198 191 197 198 158 168 225 244 281 297 240 252 269 260 242 340 299 336 338 325 314 271 254 237 216 198 192 197 202 199 202 208 210 206 201 204 204 199 200 205 205
206 251 276 228 204 166 168 200 183 157 240 269 271 278 297 329 4 357 347 350 338 324 311 296 289 271 249 224 208 200 201 202 201 204 205 204 204 203 200 197 196 197 195 192
185 247 263 264 131 235 177 159 121 155 212 261 281 267 247 251 269 297 318 312 303 307 318 309 292 274 258 230 213 198 200 202 203 203 206 212 208 205 196 189 197 198 195 188
191 209 276 288 208 204 172 179 176 174 188 200 264 269 225 211 215 213 249 274 289 305 315 312 304 294 297 316 208 204 205 196 194 201 205 208 209 205 193 198 203 200 196 189
195 167 243 251 251 222 199 194 168 187 230 209 228 266 269 205 197 191 228 287 307 317 319 318 324 339 356 356 353 222 211 206 205 202 203 208 205 198 198 206 206 194 193 194
170 161 280 316 314 218 217 212 195 189 186 203 214 258 276 142 176 215 237 304 318 321 332 343 352 347 336 335 334 298 258 229 213 195 193 204 203 204 209 211 205 193 192 193
231 198 210 225 238 224 245 246 219 199 218 233 230 248 261 260 256 264 270 274 298 322 333 343 342 332 329 337 334 316 309 285 202 171 177 196 208 212 215 207 198 191 194 195
155 227 240 255 261 252 249 251 235 224 222 230 245 244 251 241 237 234 232 251 338 345 346 342 337 333 334 338 338 328 317 315 40 146 190 225 230 205 195 197 193 181 191 202
197 233 257 273 262 259 263 254 243 240 236 238 252 259 255 243 217 199 202 178 346 339 335 338 339 337 330 323 319 321 321 311 303 234 257 265 262 201 192 206 190 181 188 194
214 205 237 265 273 287 262 239 225 223 219 215 238 250 251 237 223 209 203 200 244 297 313 320 321 315 307 304 301 288 288 311 295 263 282 265 232 243 240 212 191 195 195 191
204 203 216 251 238 243 251 226 206 216 241 224 223 247 230 228 222 169 169 184 259 291 300 305 309 313 310 306 310 304 303 300 283 294 292 272 253 261 269 215 221 224 219 204
206 192 199 212 236 264 285 276 200 204 251 244 225 256 277 206 74 321 289 247 259 273 287 291 296 297 311 318 314 330 336 321 296 291 287 283 270 253 241 244 255 264 229 221
156 181 192 207 230 246 266 293 288 156 257 283 194 224 260 145 204 257 282 318 323 327 328 328 331 340 340 328 330 358 328 318 291 282 278 288 274 238 235 241 253 287 235 226
143 194 210 219 235 258 282 317 52 175 257 311 178 196 191 198 222 237 288 353 4 1 354 355 356 350 334 332 346 344 319 296 293 291 289 292 284 255 243 246 256 229 195 161
194 199 210 203 225 252 334 46 182 245 321 2 52 85 88 234 293 13 26 18 17 14 5 0 355 344 342 348 358 344 321 308 310 298 292 288 287 284 284 192 288 209 171 178
214 203 210 207 224 299 343 265 301 16 343 339 350 334 59 38 8 11 13 11 8 4 356 353 355 352 352 354 358 343 324 330 335 336 322 310 300 293 227 195 199 210 194 205
281 301 224 261 268 300 328 351 1 356 322 318 314 323 37 62 10 5 0 357 359 1 357 357 3 360 349 347 348 338 332 340 350 347 330 329 336 344 354 327 210 208 212 217
255 256 256 262 283 317 316 314 316 334 348 354 353 358 18 70 27 3 354 351 353 355 355 0 357 350 340 342 344 343 345 356 2 356 353 349 346 352 349 337 296 251 242 231
242 227 231 253 253 250 282 306 339 2 356 1 15 11 6 22 21 13 8 2 2 3 4 2 354 346 340 343 344 346 349 353 0 356 352 345 347 352 348 332 330 321 291 273
Height
1517 1521 1522 1520 1518 1518 1518 1520 1519 1514 1508 1509 1506 1502 1496 1493 1493 1491 1490 1490 1489 1487 1487 1487 1486 1486 1486 1487 1488 1488 1488 1489 1490 1490 1491 1492 1494 1496 1497 1498 1500 1501 1503 1505
1521 1521 1516 1514 1515 1516 1517 1518 1517 1511 1507 1507 1505 1500 1493 1490 1489 1488 1487 1487 1486 1486 1485 1484 1484 1484 1484 1484 1485 1485 1486 1486 1487 1488 1489 1491 1493 1494 1495 1497 1498 1499 1501 1503
1519 1516 1512 1513 1514 1515 1515 1516 1514 1512 1508 1505 1505 1501 1494 1488 1486 1486 1485 1484 1484 1483 1483 1482 1482 1482 1482 1482 1482 1483 1483 1484 1485 1486 1487 1489 1490 1491 1492 1493 1495 1497 1499 1501
1516 1512 1512 1512 1512 1513 1514 1509 1509 1509 1513 1514 1510 1513 1496 1490 1487 1484 1483 1482 1482 1481 1481 1480 1480 1479 1479 1479 1480 1481 1481 1482 1482 1483 1484 1485 1486 1487 1489 1491 1493 1495 1496 1498
1514 1511 1510 1511 1509 1509 1509 1507 1507 1508 1511 1514 1511 1512 1500 1491 1488 1484 1481 1480 1479 1479 1479 1478 1478 1477 1477 1477 1478 1478 1479 1480 1480 1481 1482 1483 1484 1485 1487 1489 1490 1492 1494 1496
1511 1508 1507 1507 1506 1506 1506 1508 1508 1512 1514 1514 1506 1511 1501 1492 1486 1483 1480 1479 1478 1477 1477 1476 1476 1476 1476 1476 1476 1476 1476 1477 1478 1478 1479 1480 1481 1482 1484 1486 1487 1489 1490 1492
1511 1507 1504 1504 1506 1506 1508 1513 1519 1518 1520 1511 1503 1505 1497 1485 1482 1480 1479 1478 1477 1476 1476 1475 1474 1473 1473 1473 1473 1473 1474 1474 1475 1475 1476 1477 1478 1480 1481 1483 1485 1486 1487 1489
1514 1513 1503 1502 1503 1506 1507 1510 1517 1517 1517 1512 1503 1502 1491 1483 1480 1478 1478 1477 1476 1475 1474 1473 1472 1471 1471 1470 1471 1471 1471 1471 1472 1473 1473 1474 1475 1477 1478 1480 1482 1483 1484 1486
1512 1509 1501 1499 1499 1501 1505 1508 1507 1515 1516 1515 1506 1496 1487 1481 1480 1478 1478 1476 1475 1474 1473 1472 1470 1469 1468 1468 1468 1468 1468 1469 1470 1470 1471 1472 1473 1474 1475 1477 1478 1480 1481 1483
1505 1508 1502 1499 1499 1499 1500 1503 1511 1513 1512 1511 1502 1497 1491 1483 1481 1479 1478 1476 1475 1474 1472 1470 1469 1467 1466 1466 1466 1466 1467 1467 1467 1468 1469 1470 1470 1471 1472 1474 1475 1476 1478 1479
1502 1506 1504 1501 1499 1498 1501 1502 1504 1510 1511 1509 1506 1495 1481 1479 1478 1478 1477 1476 1474 1472 1471 1469 1468 1466 1465 1464 1464 1464 1464 1465 1465 1465 1466 1467 1468 1469 1469 1471 1472 1473 1474 1476
1501 1506 1508 1501 1495 1493 1494 1495 1500 1505 1505 1506 1505 1495 1477 1476 1476 1476 1476 1475 1473 1472 1470 1468 1467 1465 1464 1463 1463 1462 1463 1463 1463 1463 1464 1465 1465 1466 1466 1467 1468 1469 1471 1472
1500 1504 1506 1501 1499 1495 1494 1493 1494 1497 1501 1505 1504 1492 1477 1476 1475 1475 1475 1473 1472 1471 1469 1467 1465 1464 1463 1462 1461 1461 1461 1460 1461 1461 1461 1462 1462 1463 1464 1464 1465 1466 1467 1469
1496 1500 1501 1497 1492 1492 1492 1490 1491 1495 1499 1497 1492 1483 1477 1475 1475 1474 1473 1472 1471 1469 1467 1466 1464 1462 1461 1461 1460 1460 1459 1459 1459 1459 1459 1459 1459 1460 1461 1462 1463 1463 1465 1466
1495 1498 1495 1491 1488 1489 1487 1485 1485 1487 1487 1488 1481 1478 1473 1472 1472 1471 1471 1470 1469 1468 1466 1464 1463 1461 1460 1459 1459 1458 1457 1457 1457 1457 1457 1457 1457 1458 1458 1459 1460 1461 1462 1462
1494 1495 1493 1491 1487 1486 1483 1479 1479 1478 1478 1477 1475 1472 1467 1467 1468 1469 1469 1468 1467 1466 1465 1463 1462 1460 1459 1458 1457 1456 1456 1455 1455 1455 1454 1455 1455 1455 1456 1456 1457 1457 1458 1459
1493 1494 1494 1492 1486 1484 1480 1472 1472 1472 1470 1470 1469 1467 1466 1466 1466 1466 1466 1466 1465 1464 1463 1462 1460 1459 1458 1456 1455 1454 1454 1453 1453 1453 1453 1452 1453 1453 1453 1453 1454 1454 1455 1456
1489 1491 1494 1492 1489 1488 1469 1463 1463 1465 1465 1465 1464 1463 1463 1463 1463 1464 1464 1464 1463 1462 1461 1460 1459 1457 1456 1455 1454 1453 1452 1452 1451 1451 1451 1450 1450 1450 1450 1451 1451 1451 1452 1452
1480 1485 1490 1490 1487 1475 1468 1464 1464 1465 1464 1463 1462 1462 1462 1462 1462 1463 1462 1462 1461 1461 1460 1458 1457 1456 1454 1453 1452 1451 1450 1449 1449 1448 1448 1448 1448 1448 1448 1448 1448 1449 1449 1449
1478 1480 1485 1486 1482 1473 1467 1462 1459 1462 1464 1461 1460 1461 1461 1461 1464 1462 1460 1460 1459 1458 1457 1456 1455 1454 1452 1451 1450 1449 1448 1447 1447 1446 1446 1446 1446 1445 1445 1446 1446 1446 1446 1447
1481 1482 1482 1480 1477 1470 1466 1462 1461 1467 1465 1461 1459 1459 1459 1460 1460 1459 1458 1458 1457 1456 1455 1454 1453 1452 1450 1449 1448 1447 1446 1446 1445 1445 1444 1444 1443 1443 1443 1443 1444 1444 1444 1444
1476 1479 1479 1478 1477 1472 1464 1463 1465 1464 1462 1460 1459 1459 1459 1458 1458 1457 1457 1456 1455 1454 1453 1452 1451 1450 1448 1448 1447 1445 1444 1444 1443 1443 1442 1441 1441 1441 1441 1441 1441 1441 1441 1441
1474 1473 1472 1472 1471 1467 1464 1463 1463 1462 1461 1460 1459 1458 1458 1457 1457 1456 1455 1455 1454 1453 1452 1451 1450 1448 1447 1446 1445 1444 1443 1442 1441 1440 1440 1439 1439 1439 1438 1438 1438 1438 1438 1438
1472 1470 1471 1470 1467 1465 1464 1462 1462 1461 1461 1460 1459 1458 1456 1456 1455 1455 1454 1453 1452 1451 1450 1449 1448 1447 1446 1445 1444 1442 1441 1440 1439 1438 1438 1437 1437 1436 1436 1436 1436 1435 1435 1435
1471 1470 1469 1467 1465 1464 1462 1462 1461 1460 1459 1458 1457 1456 1456 1454 1454 1453 1452 1452 1451 1450 1449 1448 1447 1446 1444 1443 1442 1441 1439 1438 1437 1436 1435 1435 1434 1434 1433 1433 1433 1433 1433 1433
1468 1468 1468 1465 1464 1463 1462 1460 1459 1458 1457 1456 1456 1455 1454 1454 1452 1452 1451 1450 1450 1449 1448 1447 1446 1445 1443 1442 1440 1439 1438 1437 1436 1434 1434 1433 1432 1432 1431 1431 1430 1430 1430 1430